Location: Newark
(25.0000°N, 73.5000°E)
Time: 22:23:57
(UTC+00:00)

RS-15 - Pass Details

Date: 22 February 2020
Orbit: 1898 x 2146 km, 64.8° (Epoch: 06 April)

Event Time Altitude Azimuth Distance (km) Brightness Sun altitude
Rises 15:30:02 0° 225° (SW) 5,396 10.8 -33.8°
Reaches altitude 10° 15:33:37 10° 231° (SW) 4,368 10.3 -34.6°
Maximum altitude 15:44:03 45° 301° (WNW) 2,444 8.7 -36.9°
Drops below altitude 10° 15:54:22 10° 12° (NNE) 4,286 9.7 -39.3°
Sets 15:57:53 0° 19° (NNE) 5,287 10.2 -40.0°
